Location: ??????????
(42.1626°N, 44.1160°E)
Time: 10:56:46
(UTC+00:00)

Cosmos 2333 Rocket - Pass Details

Date: 03 March 2021
Orbit: 837 x 864 km, 70.8° (Epoch: 20 April)

Event Time Altitude Azimuth Distance (km) Brightness Sun altitude
Rises 15:22:18 0° 151° (SSE) 3,384 5.1 -5.7°
Reaches altitude 10° 15:25:57 10° 127° (SE) 2,460 4.2 -6.4°
Maximum altitude 15:28:43 14° 97° (E) 2,197 3.7 -6.9°
Drops below altitude 10° 15:31:31 10° 67° (ENE) 2,478 4.0 -7.4°
Sets 15:35:12 0° 44° (NE) 3,426 4.9 -8.1°
